sat.trackr.live / text

‹ back to catalog

STARLINK-11429 [DTC]

NORAD 62061 · 2024-217E

PAYLOAD ACTIVE UNKNOWN

§ Identity

Operator
Country
US
Launch date
2024-11-24
Launch site
AFWTR
Launch vehicle
Mass (kg)
RCS (m²)

Purposes: comms

External: N2YO · Heavens-Above · Gunter

§ Orbital elements

Epoch: 2026-05-25T03:55:57.091008Z

Period
91.73 min
Inclination
53.1565°
Eccentricity
0.0001055
Mean motion
15.69768548 rev/d
Perigee alt
358.8 km
Apogee alt
360.3 km
Semi-major
6,737.7 km
B*
2.1803e-3
RAAN
54.3417°
Arg perigee
96.6881°
Mean anomaly
263.4257°
Rev number
8,718

§ Raw data

STARLINK-11429 [DTC]1 62061U 24217E   26145.16385522  .00273089  00000+0  21803-2 0  99952 62061  53.1565  54.3417 0001055  96.6881 263.4257 15.69768548 87187

JSON: /api/v1/satellites/62061 · /tle

For live sub-satellite position, see the globe view (requires WebGL).

§ Visibility from observer

Set your observer location to see the next 7 days of passes ≥ 10°. The values pass through the URL so the page stays shareable.

No JS? Fill the form by hand. The geolocation button needs JavaScript.